Location: Baggettsville
(36.4767°N, 86.7303°W)
Time: 22:34:58
(UTC+00:00)

CZ-4B R/B - Pass Details

Date: 29 October 2020
Orbit: 808 x 882 km, 99.1° (Epoch: 28 November)

Event Time Altitude Azimuth Distance (km) Brightness Sun altitude
Rises 23:25:37 0° 172° (S) 3,455 6.4 -7.2°
Reaches altitude 10° 23:28:02 10° 175° (S) 2,514 5.8 -7.7°
Maximum altitude 23:33:36 67° 257° (WSW) 936 3.7 -8.8°
Drops below altitude 10° 23:39:06 10° 340° (NNW) 2,487 5.8 -9.9°
Sets 23:41:29 0° 344° (NNW) 3,416 6.5 -10.3°
